This is the latest recevied weather packets stored in our database for station/object AE5HO. If no packets are shown the sender has not sent any weather packets the latest 10 day(s).
| Time | Temp. | Humidity | Pressure | Rain* | Wind** | Luminosity | Snow |
|---|---|---|---|---|---|---|---|
| 1787426595 | 36.67° C | 47% | 1016.6 hPa | 0 mm | - | 132 W/m² | - |
| 1787426292 | 36.67° C | 46% | 1016.5 hPa | 0 mm | - | 106 W/m² | - |
| 1787425988 | 36.67° C | 47% | 1016.8 hPa | 0 mm | - | 91 W/m² | - |
| 1787425684 | 36.67° C | 47% | 1016.6 hPa | 0 mm | - | 84 W/m² | - |
| 1787425380 | 36.67° C | 46% | 1016.7 hPa | 0 mm | - | 82 W/m² | - |
| 1787425080 | 36.67° C | 46% | 1016.9 hPa | 0 mm | - | 79 W/m² | - |
| 1787424780 | 36.67° C | 48% | 1016.9 hPa | 0 mm | - | 77 W/m² | - |
| 1787424475 | 36.67° C | 47% | 1017.1 hPa | 0 mm | - | 73 W/m² | - |
| 1787424170 | 36.67° C | 46% | 1017.2 hPa | 0 mm | - | 76 W/m² | - |
| 1787423866 | 36.67° C | 47% | 1017.2 hPa | 0 mm | - | 86 W/m² | - |
| 1787423563 | 37.22° C | 45% | 1016.9 hPa | 0 mm | - | 97 W/m² | - |
| 1787423257 | 37.22° C | 44% | 1017.1 hPa | 0 mm | - | 102 W/m² | - |
| 1787422953 | 37.22° C | 46% | 1017.1 hPa | 0 mm | - | 103 W/m² | - |
| 1787422649 | 37.22° C | 43% | 1017.2 hPa | 0 mm | - | 99 W/m² | - |
| 1787422345 | 37.78° C | 47% | 1017.5 hPa | 0 mm | - | 97 W/m² | - |
| 1787422041 | 37.78° C | 44% | 1017.5 hPa | 0 mm | - | 106 W/m² | - |
| 1787421737 | 38.33° C | 42% | 1017.6 hPa | 0 mm | - | 132 W/m² | - |
| 1787421432 | 38.89° C | 42% | 1017.5 hPa | 0 mm | - | 157 W/m² | - |
| 1787421127 | 38.89° C | 42% | 1017.4 hPa | 0 mm | - | 215 W/m² | - |
| 1787420822 | 38.89° C | 42% | 1017.8 hPa | 0 mm | - | 218 W/m² | - |
| 1787420518 | 38.89° C | 41% | 1017.7 hPa | 0 mm | - | 273 W/m² | - |
| 1787420214 | 38.33° C | 43% | 1017.6 hPa | 0 mm | - | 259 W/m² | - |
| 1787419911 | 38.89° C | 43% | 1017.5 hPa | 0 mm | - | 323 W/m² | - |
| 1787419607 | 38.89° C | 41% | 1017.6 hPa | 0 mm | - | 224 W/m² | - |
| 1787419306 | 38.33° C | 43% | 1017.6 hPa | 0 mm | - | 225 W/m² | - |
* Rain latest hour (hover to see other rain measurements)
** Current wind speed in m/s (hover to see current wind gust speed)